Buenos Aires, Argentina

6:39 PM America en Octubre 17, 2017 (GMT +0000)
Jorge Newbery Aeroparque

Tiempo Historia de SABE - Octubre, 2017

Change the Weather History Date:

Viernes, Octubre 13, 2017

  Actual Average Record
Temperature  
Temperatura media 58 ° F -  
Temperatura máxima 64 ° F 73 ° F 84 ° F (2002)
Temperatura mínima 51 ° F 58 ° F 50 ° F (2004)
Degree Days  
Grados día de calefacción 8    
Growing Degree Days 8 (Base 50)    
Moisture  
Punto de rocío 44 ° F    
Average Humidity 61    
Maximum Humidity 88    
Minimum Humidity 32    
Precipitación  
Precipitación 0.00 pul 0.14 pul - ()
Presión al nivel del mar  
Presión al nivel del mar 30.17 pul    
Viento  
Velocidad del viento 6 mph ()    
Velocidad máxima del viento 10 mph    
Max Gust Speed 22 mph    
Visibilidad 6.0 Millas    
Eventos Lluvia    
Averages and records for this station are not official NWS values.
T = Trace of Precipitation, MM = Missing Value Source: Averaged Metar Reports

Daily Weather History Graph

Daily Weather History Graph

Search for Another Location

Airport or City:

Trip Planner

Search our weather history database for the weather conditions in past years. The results will help you decide how hot, cold, wet, or windy it might be!

Date:

Astronomía

Oct. 13, 2017 Salida Puesta
Hora real 6:13 AM -03 7:06 PM -03
Crepúsculo civil 5:48 AM -03 7:32 PM -03
Crepúsculo náutico 5:17 AM -03 8:02 PM -03
Crepúsculo astronómico 4:46 AM -03 8:33 PM -03
Luna 2:22 AM -03 (10/13) 1:02 PM -03 (10/13)
Horas de luz 13h 43m
Horas de luz
12h 52m
Cuarto menguante, 38% of the Moon is Illuminated
Oct 13
Cuarto menguante
Oct 19
Nueva
Oct 27
Cuarto creciente
Nov 4
Luna llena
Nov 10
Cuarto menguante

Hourly Weather History & Observations

Hora (-03) Temp. Punto de rocío Humedad Presión Visibilidad Wind Dir Velocidad del viento Velocidad de ráfagas Precip Eventos Condiciones
12:00 AM 55 ° F 45 ° F 60% 30.17 pul 5 mi SSE 10.4 mph - - Lluvia Lluvia débil
12:00 AM 55.4 ° F 44.6 ° F 67% 30.15 pul 5.0 mi SSE 10.4 mph 21.9 mph N/A Lluvia Lluvia débil
1:00 AM 53.6 ° F 48.2 ° F 82% 30.15 pul 5.6 mi Sur 5.8 mph - N/A Lluvia Lluvia débil
2:00 AM 53.6 ° F 48.2 ° F 82% 30.15 pul 6.2 mi Sur 6.9 mph - N/A   Muy nublado
3:00 AM 53 ° F 47 ° F 75% 30.16 pul 6 mi Sur 5.8 mph - -   Parcialmente nublado
3:00 AM 53.6 ° F 48.2 ° F 82% 30.15 pul 6.2 mi Sur 5.8 mph - N/A   Nubes dispersas
4:00 AM 51.8 ° F 48.2 ° F 88% 30.15 pul 5.0 mi SSO 6.9 mph - N/A   Llovizna débil
5:00 AM 51.8 ° F 48.2 ° F 88% 30.15 pul 6.2 mi SSO 8.1 mph - N/A   Muy nublado
6:00 AM 53 ° F 48 ° F 77% 30.16 pul 6 mi Sur 6.9 mph - -   Parcialmente nublado
6:00 AM 53.6 ° F 48.2 ° F 82% 30.15 pul 6.2 mi Sur 6.9 mph - N/A   Nubes dispersas
7:00 AM 53.6 ° F 48.2 ° F 82% 30.24 pul 6.2 mi Sur 5.8 mph - N/A   Muy nublado
8:00 AM 53.6 ° F 48.2 ° F 82% 30.15 pul - Sur 5.8 mph - N/A   Despejado
9:00 AM 55 ° F 48 ° F 70% 30.20 pul 6 mi SSO 5.8 mph - -   Parcialmente nublado
9:00 AM 55.4 ° F 48.2 ° F 77% 30.18 pul 6.2 mi SSO 5.8 mph - N/A   Nublado
10:00 AM 55.4 ° F 46.4 ° F 72% 30.18 pul 6.2 mi Sur 8.1 mph - N/A   Nublado
11:00 AM 57.2 ° F 46.4 ° F 67% 30.18 pul 6.2 mi SSE 8.1 mph - N/A   Muy nublado
12:00 PM 60 ° F 42 ° F 41% 30.19 pul 6 mi SSE 8.1 mph - -   Nubes dispersas
12:00 PM 60.8 ° F 42.8 ° F 52% 30.18 pul 6.2 mi SSE 8.1 mph - N/A   Muy nublado
1:00 PM 62.6 ° F 41.0 ° F 45% 30.18 pul 6.2 mi Sur 6.9 mph - N/A   Muy nublado
2:00 PM 64.4 ° F 41.0 ° F 42% 30.15 pul 6.2 mi Sur 4.6 mph - N/A   Muy nublado
3:00 PM 63 ° F 40 ° F 32% 30.16 pul 6 mi ESE 6.9 mph - -   Nubes dispersas
3:00 PM 62.6 ° F 41.0 ° F 45% 30.15 pul 6.2 mi ESE 6.9 mph - N/A   Muy nublado
4:00 PM 62.6 ° F 39.2 ° F 42% 30.15 pul 6.2 mi ESE 10.4 mph - N/A   Muy nublado
5:00 PM 60.8 ° F 42.8 ° F 52% 30.12 pul 6.2 mi Este 8.1 mph - N/A   Muy nublado
6:00 PM 60 ° F 43 ° F 43% 30.16 pul 6 mi ESE 4.6 mph - -   Nublado
6:00 PM 60.8 ° F 42.8 ° F 52% 30.15 pul 6.2 mi ESE 4.6 mph - N/A   Nublado
7:00 PM 59.0 ° F 42.8 ° F 55% 30.15 pul 6.2 mi ESE 9.2 mph - N/A   Muy nublado
8:00 PM 59.0 ° F 41.0 ° F 51% 30.15 pul 6.2 mi Este 8.1 mph - N/A   Muy nublado
9:00 PM 60 ° F 38 ° F 33% 30.19 pul 6 mi Sur 4.6 mph - -   Nublado
9:00 PM 60.8 ° F 37.4 ° F 42% 30.18 pul 6.2 mi Sur 3.5 mph - N/A   Muy nublado
10:00 PM 60.8 ° F 35.6 ° F 39% 30.18 pul 6.2 mi SSE 3.5 mph - N/A   Nubes dispersas
11:00 PM 59.0 ° F 33.8 ° F 39% 30.18 pul - Variable 2.3 mph - N/A   Despejado